TimePDT,TemperatureF,Dew PointF,Humidity,Sea Level PressureIn,VisibilityMPH,Wind Direction,Wind SpeedMPH,Gust SpeedMPH,PrecipitationIn,Events,Conditions,WindDirDegrees,DateUTC
12:52 AM,66.0,63.0,90,29.92,-9999.0,Calm,Calm,-,N/A,,Unknown,0,2012-09-12 07:52:00
1:52 AM,66.0,63.0,90,29.90,-9999.0,Calm,Calm,-,N/A,,Unknown,0,2012-09-12 08:52:00
2:52 AM,66.0,63.0,90,29.90,-9999.0,Calm,Calm,-,N/A,,Unknown,0,2012-09-12 09:52:00
4:52 AM,64.9,63.0,93,29.91,-9999.0,NW,3.5,-,N/A,,Unknown,320,2012-09-12 11:52:00
5:52 AM,63.0,62.1,97,29.93,-9999.0,North,3.5,-,N/A,,Unknown,350,2012-09-12 12:52:00
6:52 AM,62.1,61.0,96,29.95,-9999.0,Calm,Calm,-,N/A,,Unknown,0,2012-09-12 13:52:00
7:52 AM,64.9,63.0,93,29.95,-9999.0,Calm,Calm,-,N/A,,Unknown,0,2012-09-12 14:52:00
8:52 AM,78.1,64.9,64,29.94,-9999.0,Variable,5.8,-,N/A,,Unknown,0,2012-09-12 15:52:00
9:52 AM,81.0,62.1,52,29.94,-9999.0,East,10.4,-,N/A,,Unknown,80,2012-09-12 16:52:00
10:52 AM,82.9,61.0,47,29.94,-9999.0,ENE,6.9,-,N/A,,Unknown,60,2012-09-12 17:52:00
11:52 AM,84.0,60.1,44,29.92,-9999.0,ENE,12.7,20.7,N/A,,Unknown,70,2012-09-12 18:52:00
12:52 PM,87.1,57.0,36,29.90,-9999.0,NE,11.5,-,N/A,,Unknown,50,2012-09-12 19:52:00
1:52 PM,87.8,57.2,35,29.99,-9999.0,SE,5.8,-,N/A,,Unknown,140,2012-09-12 20:52:00
2:52 PM,86.0,60.1,41,29.88,-9999.0,East,6.9,-,N/A,,Unknown,100,2012-09-12 21:52:00
3:52 PM,84.9,62.1,46,29.86,-9999.0,South,8.1,-,N/A,,Unknown,180,2012-09-12 22:52:00
4:52 PM,84.9,63.0,48,29.87,-9999.0,SW,11.5,-,N/A,,Unknown,220,2012-09-12 23:52:00
5:52 PM,82.9,62.1,49,29.88,-9999.0,WNW,6.9,-,N/A,,Unknown,290,2012-09-13 00:52:00
6:52 PM,77.0,63.0,62,29.91,-9999.0,SSW,5.8,-,N/A,,Unknown,200,2012-09-13 01:52:00
7:52 PM,73.0,64.0,73,29.93,-9999.0,South,4.6,-,N/A,,Unknown,190,2012-09-13 02:52:00
8:52 PM,70.0,64.0,81,29.94,-9999.0,Calm,Calm,-,N/A,,Unknown,0,2012-09-13 03:52:00
9:52 PM,66.9,63.0,87,29.95,-9999.0,NE,3.5,-,N/A,,Unknown,50,2012-09-13 04:52:00
10:52 PM,66.0,61.0,84,29.95,-9999.0,NNE,3.5,-,N/A,,Unknown,30,2012-09-13 05:52:00
11:52 PM,64.0,60.1,87,29.95,-9999.0,ENE,6.9,-,N/A,,Unknown,60,2012-09-13 06:52:00